Regional Weather Roundup
Issued by NWS

Home | Current Version | Previous Version | Graphics & Text | Print | Product List | Glossary On
Versions: 1 2 3 4 5 6 7 8 9 10 11 12 13 14 15 16 17 18 19 20 21 22 23 24 25 26 27 28 29 30 31 32 33 34 35 36 37 38 39 40 41 42 43 44 45 46 47 48 49 50
000
ASUS45 KTFX 260510
RWRMT
MONTANA REGIONAL WEATHER ROUNDUP
NATIONAL WEATHER SERVICE GREAT FALLS MT
1100 PM MDT SAT MAR 25 2017

NOTE: "FAIR" INDICATES FEW OR NO CLOUDS BELOW 12000 FEET WITH NO
SIGNIFICANT WEATHER AND/OR OBSTRUCTIONS TO VISIBILITY.

MTZ001>007-043-260600-
WEST OF THE DIVIDE

CITY           SKY/WX    TMP DP  RH WIND       PRES   REMARKS
KALISPELL      CLOUDY    38  32  79 S7        29.97S
MISSOULA       CLOUDY    40  33  76 NE3       30.02S
BUTTE          CLOUDY    36  24  62 NW6       29.96R WCI  31
MULLAN PASS    MOCLDY    25  23  92 W8        29.95R WCI  16
ANACONDA         N/A     34  27  75 W5        29.98R
DEER LODGE       N/A     37  27  65 NW15      29.99S WCI  28
EUREKA           N/A     39  27  60 SE6       29.96S
HAMILTON         N/A     39  32  75 CALM      30.02R
PLAINS           N/A     41  30  65 CALM      30.01R
RONAN            N/A     40  33  76 SE2       30.03F
$$

MTZ008-052>055-260600-
SOUTHWEST MONTANA

CITY           SKY/WX    TMP DP  RH WIND       PRES   REMARKS
BOZEMAN        CLOUDY    38  32  79 S10       29.93S WCI  31
DILLON         CLOUDY    38  23  55 S6        29.93S
W YELLOWSTONE  CLOUDY    30  28  93 CALM      29.98S
ENNIS          MOCLDY    37  30  75 S10G17    29.98R WCI  30
THREE FORKS      N/A     43  43 100 CALM      29.94R
TWIN BRIDGES     N/A     38  24  57 NE2       29.93S
$$

MTZ009-010-012-014-046-048-049-054-260600-
EAST SLOPES AND CENTRAL MONTANA

CITY           SKY/WX    TMP DP  RH WIND       PRES   REMARKS
CUT BANK       CLEAR     32  25  75 SW7       29.89F WCI  26
GREAT FALLS    CLEAR     34  22  61 W9        29.92R WCI  27
MALMSTROM AFB  PTCLDY    40  24  54 W8        29.93R
HELENA         CLOUDY    41  28  60 CALM      29.95R
AUGUSTA        MOCLDY    38  23  55 NW20      29.91F WCI  28
BOWMANS CRNR     N/A     34  25  69 CALM      29.91R
CHOTEAU          N/A     34  28  80 SW6       29.93S WCI  29
CONRAD           N/A     39  28  65 W10       29.93S
FAIRFIELD        N/A     36  24  61 SW10      29.91S WCI  29
POWER            N/A     31  20  66 W7        29.91S WCI  24
RAYNESFORD       N/A     33  21  62 CALM      29.94R
$$

MTZ011-013-016-021-045-047-050-051-260600-
NORTH CENTRAL MONTANA

CITY           SKY/WX    TMP DP  RH WIND       PRES   REMARKS
HAVRE          CLEAR     38  25  59 SW6       29.89R
LEWISTOWN      CLOUDY    38  22  52 S7        29.91F
N BAR RANCH    MOCLDY    37  18  44 W5        29.94S
CHINOOK          N/A     37  25  60 SW6       29.89R
DENTON           N/A     36  22  56 SW8       29.88S WCI  30
FORT BENTON      N/A     39  21  48 MISG      29.92R
GEYSER           N/A     35  21  55 SW13      29.92R WCI  27
GRASS RANGE    MOCLDY    40  24  53 S7        29.88S
STANFORD         N/A     38  22  52 W9        29.92R WCI  31
WINIFRED         N/A     45  18  34 W3        29.89F
$$

MTZ017>020-022>027-061-062-260600-
NORTHEAST MONTANA

CITY           SKY/WX    TMP DP  RH WIND       PRES   REMARKS
GLASGOW        CLOUDY    40  30  67 E5        29.87F
JORDAN           N/A     47  31  53 CALM      29.89S
SIDNEY         MOCLDY    47  30  51 CALM      29.89S
WOLF POINT     CLOUDY    42  35  76 CALM      29.89S
MALTA          CLOUDY    41  34  75 CALM      29.87S
PLENTYWOOD       N/A     45  30  57 CALM      29.89S
POPLAR           N/A     45  30  57 CALM      29.89S
SCOBEY           N/A     35  20  55 CALM      29.87F
$$

MTZ028>42-056>058-260600-
SOUTHCENTRAL AND SOUTHEAST MONTANA

CITY           SKY/WX    TMP DP  RH WIND       PRES   REMARKS
BAKER          LGT RAIN  46  35  65 NE6       29.92R
BILLINGS       CLOUDY    46  31  55 SW6       29.91S
LIVINGSTON     CLEAR     33  28  81 CALM      29.93S
MILES CITY     CLOUDY    49  34  56 S9        29.91R
BIG TIMBER     CLEAR     36  32  87 CALM      29.96R
EKALAKA          N/A     43  34  70 N2        29.90S
FORSYTH          N/A     48  34  57 S6        29.91R
HARLOWTON        N/A     36  24  61 NW12      29.92R WCI  28
LAUREL           N/A     43  29  58 CALM      29.91F
$$

REGIONAL REPORTS...DAKOTAS

CITY           SKY/WX    TMP DP  RH WIND       PRES   REMARKS
WILLISTON      CLOUDY    45  32  60 NE5       29.88S
MINOT          CLOUDY    46  35  65 SW12      29.88R
DICKINSON      CLOUDY    42  29  59 CALM      29.88S
BEACH            N/A    N/A N/A N/A MISG        N/A
TIOGA            N/A     39  36  87 NE6       29.90S
WATFORD CITY   CLOUDY    45  34  65 S5        29.88R
BISMARCK       CLOUDY    43  34  70 SE5       29.93S
GRAND FORKS    PTCLDY    34  33  96 S7        30.00R WCI  28
FARGO          CLOUDY    35  32  88 S9        30.02S WCI  28
BUFFALO SD       N/A     48  32  53 NE10      29.81S
RAPID CITY     CLOUDY    51  33  50 N15       29.80S
$$

REGIONAL REPORTS...WYOMING/IDAHO/WASHINGTON

CITY           SKY/WX    TMP DP  RH WIND       PRES   REMARKS
GILLETTE       CLOUDY    44  33  65 N12       29.91R
SHERIDAN       LGT RAIN  38  36  92 W6        29.95S
BUFFALO WY     LGT RAIN  37  34  89 N9        29.94S WCI  30
CODY           CLOUDY    41  29  62 NW3       29.95S
YELLOWSTONE LA   N/A     23  20  88 CALM      30.00R
IDAHO FALLS    CLEAR     38  27  64 S6        29.98S
SALMON         PTCLDY    45  19  36 S7        29.96R
BOISE          PTCLDY    45  30  55 SE8       30.00S
SPOKANE        PTCLDY    40  32  73 SE7       29.99S
$$

REGIONAL REPORTS...ALBERTA

CITY           SKY/WX    TMP DP  RH WIND       PRES   REMARKS
EDMONTON       CLOUDY    36  28  75 SW6       29.77R WCI  31
CALGARY        CLEAR     37  12  35 W10G17    29.77S WCI  30
LETHBRIDGE     CLEAR     32  19  59 SW13      29.85S WCI  22
MEDICINE HAT   CLEAR     36  23  60 VRB2      29.83S
WATERTON GATE    N/A     36  16  44 SW16G22     N/A  WCI  26
CARDSTON         N/A     32  18  55 SW3         N/A
MILK RIVER       N/A     32  25  74 NW2         N/A
$$

REGIONAL REPORTS...SASKATCHEWAN

CITY           SKY/WX    TMP DP  RH WIND       PRES   REMARKS
SWIFT CURRENT  MOCLDY    41  28  60 SW12      29.82S
REGINA         MOCLDY    36  34  93 SE9       29.86S WCI  29
SASKATOON      PTCLDY    28  27  93 E5        29.87S
CYPRESS HILLS    N/A     37  16  41 W9          N/A  WCI  31
VAL MARIE        N/A     36  30  80 S1          N/A
ROCKGLEN         N/A     39  27  60 S3          N/A
ASSINIBOIA       N/A     27  25  93 CALM        N/A
$$



USA.gov is the U.S. government's official web portal to all federal, state and local government web resources and services.